Location: Carrières
(48.9495°N, 2.0407°E)
Time: 15:50:55
(UTC+00:00)

Vanguard 2 Rocket - Pass Details

Date: 21 April 2024
Orbit: 556 x 3304 km, 32.9° (Epoch: 18 May)

Event Time Altitude Azimuth Distance (km) Brightness Sun altitude
Rises 18:28:59 0° 187° (S) 5,624 10.9 3.0°
Reaches altitude 10° 18:34:06 10° 171° (S) 5,093 10.5 2.2°
Maximum altitude 18:43:27 19° 134° (SE) 5,037 10.2 0.7°
Drops below altitude 10° 18:54:32 10° 98° (E) 6,198 10.5 -1.0°
Sets 19:01:46 0° 84° (E) 7,292 10.9 -2.1°
